Mildenhall RAF, United Kingdom

7:02 PM GMT on December 17, 2017 (GMT +0000)
Mildenhall Air Base

Weather History for EGUN - October, 2012

Change the Weather History Date:

Wednesday, October 10, 2012

  Actual Average Record
Temperature  
Mean Temperature 48 °F -  
Max Temperature 59 °F - - ()
Min Temperature 37 °F - - ()
Degree Days  
Heating Degree Days 17    
Moisture  
Dew Point 43 °F    
Average Humidity 78    
Maximum Humidity 100    
Minimum Humidity 55    
Precipitation  
Precipitation 0.00 in - - ()
Sea Level Pressure  
Sea Level Pressure 29.99 in    
Wind  
Wind Speed 2 mph ()    
Max Wind Speed 6 mph    
Max Gust Speed -    
Visibility 6.0 miles    
Events Rain    
T = Trace of Precipitation, MM = Missing Value Source: Averaged Metar Reports

Daily Weather History Graph

Daily Weather History Graph

Search for Another Location

Airport or City:

Trip Planner

Search our weather history database for the weather conditions in past years. The results will help you decide how hot, cold, wet, or windy it might be!

Date:

Astronomy

Oct. 10, 2012 Rise Set
Actual Time 7:15 AM BST 6:13 PM BST
Civil Twilight 6:40 AM BST 6:47 PM BST
Nautical Twilight 6:01 AM BST 7:27 PM BST
Astronomical Twilight 5:21 AM BST 8:06 PM BST
Moon 12:56 AM BST (10/10) 3:42 PM BST (10/10)
Length of Visible Light 12h 06m
Length of Day
10h 58m
Waning Crescent, 29% of the Moon is Illuminated
Oct 10
Waning Crescent
Oct 15
New
Oct 22
First Quarter
Oct 29
Full
Nov 7
Last Quarter

Hourly Weather History & Observations

Time (BST) Temp. Windchill Dew Point Humidity Pressure Visibility Wind Dir Wind Speed Gust Speed Precip Events Conditions
12:58 AM 40.8 °F - 40.8 °F 100% 30.05 in 6.2 mi ENE 2.3 mph - N/A   Overcast
1:58 AM 42.6 °F - 42.6 °F 100% 30.04 in 6.2 mi ENE 2.3 mph - N/A   Mostly Cloudy
2:58 AM 43.7 °F - 42.6 °F 96% 30.04 in 6.2 mi Calm Calm - N/A   Mostly Cloudy
3:52 AM 42.8 °F - 42.8 °F 100% 30.02 in 6.2 mi Calm Calm - N/A   Scattered Clouds
3:54 AM 42.8 °F - 42.8 °F 100% 30.02 in 6.2 mi Calm Calm - N/A   Mostly Cloudy
3:58 AM 42.8 °F - 42.8 °F 100% 30.02 in 6.2 mi Calm Calm - N/A   Mostly Cloudy
4:03 AM 42.8 °F - 42.8 °F 100% 30.01 in 6.2 mi SSE 1.2 mph - N/A   Scattered Clouds
4:37 AM 41.0 °F - 41.0 °F 100% 30.01 in 6.2 mi SSE 1.2 mph - N/A   Mostly Cloudy
4:44 AM 41.0 °F - 41.0 °F 100% 30.01 in 6.2 mi SSE 1.2 mph - N/A   Scattered Clouds
4:58 AM 40.8 °F - 40.8 °F 100% 30.02 in 6.2 mi Calm Calm - N/A   Partly Cloudy
5:58 AM 39.4 °F - 39.4 °F 100% 30.02 in 6.2 mi ENE 2.3 mph - N/A   Partly Cloudy
6:50 AM 37.4 °F 33.8 °F 37.4 °F 100% 30.00 in 6.2 mi ENE 4.6 mph - N/A   Mostly Cloudy
6:58 AM 37.9 °F 35.5 °F 37.9 °F 100% 30.01 in 6.2 mi ENE 3.5 mph - N/A   Mostly Cloudy
7:58 AM 40.5 °F - 40.5 °F 100% 30.03 in 6.2 mi East 2.3 mph - N/A   Overcast
8:58 AM 45.0 °F - 45.0 °F 100% 30.03 in 6.2 mi Calm Calm - N/A   Overcast
9:58 AM 49.5 °F - 46.6 °F 90% 30.03 in 6.2 mi East 3.5 mph - N/A   Overcast
10:58 AM 53.1 °F - 43.5 °F 70% 30.03 in 6.2 mi East 5.8 mph - N/A   Overcast
11:58 AM 55.4 °F - 43.7 °F 65% 30.02 in 6.2 mi ENE 5.8 mph - N/A   Overcast
12:21 PM 57.2 °F - 42.8 °F 59% 30.01 in 6.2 mi Variable 2.3 mph - N/A   Scattered Clouds
12:50 PM 55.4 °F - 42.8 °F 63% 30.00 in 6.2 mi NNE 3.5 mph - N/A   Mostly Cloudy
12:58 PM 56.5 °F - 42.1 °F 59% 30.01 in 6.2 mi ENE 5.8 mph - N/A   Mostly Cloudy
1:51 PM 55.4 °F - 42.8 °F 63% 29.99 in 6.2 mi NNE 3.5 mph - N/A Rain Light Rain
1:58 PM 56.3 °F - 42.3 °F 59% 30.00 in 6.2 mi NNE 4.6 mph - 0.00 in Rain Light Rain
2:01 PM 55.4 °F - 42.8 °F 63% 29.99 in 6.2 mi NNE 3.5 mph - N/A   Overcast
2:07 PM 57.2 °F - 42.8 °F 59% 29.99 in 6.2 mi NNE 3.5 mph - N/A Rain Light Rain
2:19 PM 59.0 °F - 42.8 °F 55% 29.99 in 6.2 mi Variable 2.3 mph - N/A   Overcast
2:35 PM 57.2 °F - 42.8 °F 59% 29.98 in 6.2 mi East 3.5 mph - N/A Rain Light Rain
2:36 PM 57.2 °F - 42.8 °F 59% 29.98 in 6.2 mi East 4.6 mph - N/A Rain Light Rain
2:47 PM 57.2 °F - 41.0 °F 55% 29.98 in 6.2 mi Variable 1.2 mph - N/A Rain Light Rain
2:55 PM 55.4 °F - 42.8 °F 63% 29.98 in 6.2 mi Variable 2.3 mph - N/A   Mostly Cloudy
2:58 PM 56.1 °F - 42.3 °F 60% 29.99 in 6.2 mi SSE 2.3 mph - 0.00 in   Mostly Cloudy
3:26 PM 57.2 °F - 42.8 °F 59% 29.97 in 2.5 mi ESE 2.3 mph - N/A   Haze
3:27 PM 57.2 °F - 42.8 °F 59% 29.97 in 2.5 mi East 1.2 mph - N/A Rain Light Rain
3:29 PM 57.2 °F - 42.8 °F 59% 29.97 in 3.1 mi ESE 1.2 mph - N/A Rain Light Rain
3:38 PM 55.4 °F - 42.8 °F 63% 29.97 in 6.2 mi ESE 2.3 mph - N/A   Overcast
3:50 PM 57.2 °F - 42.8 °F 59% 29.97 in 6.2 mi SSE 3.5 mph - N/A Rain Light Rain
3:58 PM 57.0 °F - 43.5 °F 61% 29.97 in 6.2 mi SE 4.6 mph - 0.00 in Rain Light Rain
4:09 PM 57.2 °F - 42.8 °F 59% 29.96 in 6.2 mi SSE 4.6 mph - N/A Rain Light Rain
4:11 PM 57.2 °F - 44.6 °F 63% 29.96 in 6.2 mi SSE 5.8 mph - N/A   Scattered Clouds
5:14 PM 57.2 °F - 44.6 °F 63% 29.95 in 6.2 mi SE 5.8 mph - N/A Rain Light Rain
5:50 PM 55.4 °F - 44.6 °F 67% 29.95 in 6.2 mi SSE 5.8 mph - N/A   Mostly Cloudy
5:58 PM 55.0 °F - 45.3 °F 70% 29.96 in 6.2 mi SSE 5.8 mph - 0.00 in   Mostly Cloudy
6:38 PM 51.8 °F - 46.4 °F 82% 29.95 in 6.2 mi SE 5.8 mph - N/A   Scattered Clouds
6:58 PM 50.4 °F - 46.2 °F 86% 29.96 in 6.2 mi SE 4.6 mph - N/A   Clear
7:58 PM 48.2 °F - 45.9 °F 92% 29.96 in 6.2 mi ESE 4.6 mph - N/A   Clear
8:58 PM 44.8 °F 41.6 °F 44.8 °F 100% 29.95 in 6.2 mi ESE 5.8 mph - N/A   Clear
9:58 PM 44.1 °F 40.8 °F 44.1 °F 100% 29.94 in 6.2 mi ESE 5.8 mph - N/A   Clear
10:58 PM 45.0 °F 41.8 °F 44.6 °F 99% 29.93 in 6.2 mi ESE 5.8 mph - N/A   Clear
11:58 PM 42.6 °F 40.9 °F 42.6 °F 100% 29.92 in 6.2 mi ESE 3.5 mph - N/A   Clear